Tracking 31011 objects as of 13-Jul-2025
HD Live streaming from Space Station
objects crossing your sky now

COSMOS 1176 COOLANT

Track COSMOS 1176 COOLANT now!
10-day predictions


NORAD ID: 27568
Int'l Code: 1980-034E
Perigee: 823.4 km
Apogee: 892.0 km
Inclination: 64.8 °
Period: 101.9 minutes
Semi major axis: 7228 km
RCS: 0.012 m2 (small)
Launch date: April 29, 1980
Source: Commonwealth of Independent States (former USSR) (CIS)
Launch site: TYURATAM MISSILE AND SPACE COMPLEX (TTMTR)

Note: This is SATELLITE DEBRIS
Your satellite tracking list
Your tracking list is empty




NASA's NSSDC Master Catalog

Two Line Element Set (TLE):
1 27568U 80034E   25184.17431296  .00000539  00000-0  33955-3 0  9991
2 27568  64.8204 356.7203 0047455 313.5821  46.1317 14.12584290 50179
Source of the keplerian elements: AFSPC